Tracking 19181 objects as of 17-Jun-2018
HD Live streaming from Space Station
objects crossing your sky now

FENGYUN 1C DEB

Track FENGYUN 1C DEB now!
10-day predictions


NORAD ID: 31077
Int'l Code: 1999-025BFX
Perigee: 595.4 km
Apogee: 747.2 km
Inclination: 99.0 °
Period: 98.0 minutes
Semi major axis: 7042 km
RCS: 0.0141 m2 (small)
Launch date: May 10, 1999
Source: People's Republic of China (PRC)
Launch site: Taiyaun Space Center, China (TSC)

Note: This is SATELLITE DEBRIS
aabbcc
Your satellite tracking list
Your tracking list is empty




NASA's NSSDC Master Catalog

Two Line Element Set (TLE):
1 31077U 99025BFX 18167.93648219 +.00001140 +00000-0 +18847-3 0  9995
2 31077 099.0132 164.3030 0107776 336.3638 023.2633 14.69038505597675
Source of the keplerian elements: AFSPC